This demonstration page uses our WeatherBlox Daily Observations layout. Learn more.

Left ArrowRight Arrow

Hourly Observations for May 15, 2016

Temp ( °F °C ) Dew Point ( °F °C ) Humidity (%) Winds ( mph kmh ) Pressure ( in mb ) Visibility ( mi km ) Precip ( " mm )
12:54 am 00:54 Clear 41 5 33 0.6 73 73 Calm 30.25 1024 10 16 0.00 0.00
1:54 am 01:54 Clear 41 5 33 0.6 73 73 Calm 30.25 1024 10 16 0.00 0.00
2:54 am 02:54 Clear 42 5.6 35 1.7 76 76 S 3 6 30.24 1024 10 16 0.00 0.00
3:54 am 03:54 Clear 40 4.4 33 0.6 77 77 Calm 30.25 1024 10 16 0.00 0.00
4:54 am 04:54 Clear 39 3.9 34 1.1 82 82 SSW 3 6 30.25 1024 10 16 0.00 0.00
5:54 am 05:54 Clear 41 5 33 0.6 73 73 Calm 30.25 1024 10 16 0.00 0.00
6:54 am 06:54 Sunny 38 3.3 33 0.6 83 83 Calm 30.25 1025 10 16 0.00 0.00
7:54 am 07:54 Sunny 47 8.3 36 2.2 66 66 Calm 30.25 1024 10 16 0.00 0.00
8:54 am 08:54 Sunny 55 12.8 35 1.7 47 47 W 6 9 30.24 1024 10 16 0.00 0.00
9:54 am 09:54 Sunny 60 15.6 32 0 35 35 W 9 15 30.23 1024 10 16 0.00 0.00
10:54 am 10:54 Sunny 62 16.7 30 -1.1 30 30 VRB 3 6 30.23 1024 10 16 0.00 0.00
11:54 am 11:54 Sunny 63 17.2 29 -1.7 28 28 Calm 30.21 1023 10 16 0.00 0.00
12:54 pm 12:54 Sunny 63 17.2 26 -3.3 25 25 S 6 9 30.19 1022 10 16 0.00 0.00
1:54 pm 13:54 Sunny 63 17.2 30 -1.1 29 29 S 7 11 30.16 1022 10 16 0.00 0.00
2:54 pm 14:54 Sunny 63 17.2 31 -0.6 30 30 SW 13 20 30.16 1021 10 16 0.00 0.00
3:54 pm 15:54 Sunny 63 17.2 30 -1.1 29 29 S 9 15 30.15 1021 10 16 0.00 0.00
4:54 pm 16:54 Cloudy 62 16.7 30 -1.1 30 30 S 7 11 30.12 1020 10 16 0.00 0.00
5:54 pm 17:54 Cloudy 62 16.7 31 -0.6 31 31 S 6 9 30.11 1020 10 16 0.00 0.00
6:54 pm 18:54 Cloudy 61 16.1 33 0.6 35 35 S 5 7 30.10 1019 10 16 0.00 0.00
7:30 pm 19:30 Cloudy 57 14 37 3 48 48 SW 14 22 30.12 1020 10 16 0.00 0.00
7:54 pm 19:54 Cloudy 56 13.3 38 3.3 51 51 SW 18 30 30.13 1020 10 16 0.00 0.00
8:54 pm 20:54 Cloudy 54 12.2 40 4.4 59 59 SSW 8 13 30.13 1020 10 16 0.00 0.00
9:54 pm 21:54 Cloudy 53 11.7 40 4.4 61 61 SSW 8 13 30.14 1021 10 16 0.00 0.00
10:54 pm 22:54 Cloudy 53 11.7 41 5 64 64 SW 6 9 30.14 1021 10 16 0.00 0.00
11:54 pm 23:54 Cloudy 53 11.7 41 5 64 64 SSW 8 13 30.14 1021 10 16 0.00 0.00

Powered by AerisWeather